sat.trackr.live / text

‹ back to catalog

TRANSPORTER-12 OBJECT M

NORAD 62620 · 2025-009M

PAYLOAD ACTIVE UNKNOWN

§ Identity

Operator
Country
TBD
Launch date
2025-01-14
Launch site
AFWTR
Launch vehicle
Mass (kg)
RCS (m²)

External: N2YO · Heavens-Above · Gunter

§ Orbital elements

Epoch: 2026-09-22T21:48:47.129184Z

Period
88.26 min
Inclination
97.3642°
Eccentricity
0.0014509
Mean motion
16.31505224 rev/d
Perigee alt
179.0 km
Apogee alt
198.0 km
Semi-major
6,566.6 km
B*
1.1543e-3
RAAN
2.5161°
Arg perigee
282.9423°
Mean anomaly
77.0252°
Rev number
9,486

§ Raw data

TRANSPORTER-12 OBJECT M1 62620U 25009M   26265.90887881  .05964329  24784-5  11543-2 0  99962 62620  97.3642   2.5161 0014509 282.9423  77.0252 16.31505224 94862

JSON: /api/v1/satellites/62620 · /tle

For live sub-satellite position, see the globe view (requires WebGL).

§ Visibility from observer

Set your observer location to see the next 7 days of passes ≥ 10°. The values pass through the URL so the page stays shareable.

No JS? Fill the form by hand. The geolocation button needs JavaScript.